COSMOS 1492 (GLONASS)

Satellite information

Favourite Embed

Satellite Type and Status

PAYLOADIN ORBIT

Key statistics

Satellite COSMOS 1492 (GLONASS) at a glance.

Uptime

15309

Days in orbit

Revolutions

≈ 2.1

Per day

Orbit

MEO

Medium Earth Orbit

Inclination

64.6

Latest

Satellite identification and parameters

Extended collection of information and parameters for COSMOS 1492 (GLONASS).

Object identification

Identified? True

Debris? False

Object name: COSMOS 1492 (GLONASS)

International designator: 1983-084C

Object number (NORAD): 14260

Object ID (CCSDS): 14260

Country: COMMONWEALTH OF INDEPENDENT STATES (CIS)

Current information (Y/N): Y

RCS size: MEDIUM

Orbital parameters

Period: 676.822 minutes

Inclination: 64.6154 deg

SMA: 25535.424 km

Apoapsis: 19161.281 km

Periapsis: 19153.298 km

RAAN: 86.402 deg

Eccentricy: 0.0001563

Argument of periapsis: 5.0264 deg

Mean anomaly: 171.3996 deg

Mean motion: 2.12759099 rev/day

Mean motion (dot): -0.00000048 rev/day2

B* drag term: 0.0 1/REarth

Two-line elements (TLE)

Creation date: July 6, 2025, 6:05 p.m.

Reference frame: TEME

Reference center: EARTH

Epoch: July 6, 2025, 2:53 a.m. UTC

TLE line 0: 0 COSMOS 1492 (GLONASS)

TLE line 1: 1 14260U 83084C 25187.12067116 -.00000048 00000-0 00000-0 0 9996

TLE line 2: 2 14260 64.6154 86.4020 0001563 5.0264 171.3996 2.12759099324215

Live tracking on map

Real-time ground track for satellite COSMOS 1492 (GLONASS).

In-orbit conjunctions

A list of the most updated potential collisions computed for object COSMOS 1492 (GLONASS).

Target Orbit TCA Probability of collision Miss distance Type
COSMOS 1712 (GLONASS) MEO 2025-05-24 04:43:38 TBA 1968.0 (m) PAYLOAD

Associated space launch

Second generation high resolution film-return Yantar reconnaissance satellite

COSMOS 1492 (GLONASS) was lifted into orbit during the mission ‘Soyuz U | Yantar-4K1 10’, on board a Soyuz U space rocket.

The launch took place on Aug. 10, 1983, 1 p.m. from 1/5.

For more information about the launch, click the button.

Launch to space Soyuz U | Yantar-4K1 10
Soyuz U | Yantar-4K1 10

Agency: N/A

Status: Launch Successful

Launch date: Aug. 10, 1983, 1 p.m. UTC

Rocket: Soyuz U

Launch pad: 1/5

Location: Baikonur Cosmodrome, Republic of Kazakhstan

...

Latest news about this satellite

There are no fresh news available about this satellite. Check back as we update our databases every day.


Newsletter sign-up

Weekly statistics, charts and insights to help you stay on top of the space industry.